www.pogodaiklimat.ru

Погода и климат >> Архив погоды >> Мексика >> Monterrey


ПОГОДА в Monterrey

  • Прогноз погоды в Monterrey
  • Монитор погоды в Monterrey
  • Климат города

АРХИВ ПОГОДЫ в Monterrey

Время (UTC), дата Ветер
(напр.,м/с)
 
Видим.   Явления Облачность Т
(С)
Тd
(С)
f
(%)
Тe
(С)
Тes
(С)
Комфортность P
(гПа)
Po
(гПа)
Тmin
(С)
Tmax
(С)
R
(мм)
R24
(мм)
S
(см)
03 16.07 ЮВ 2 1000 м дым ясно +30.4 +19.4 52 +36 +36 очень
душно
1009.0 954.7
12 16.07 В 1 1000 м мгла {туман} ясно +22.8 +20.8 88 +30 +30 очень
душно
1012.5 957.1 +22.4 +37.6
15 16.07 СВ 1 1000 м мгла {туман} 8/8 540 м
[Sc]
+25.6 +21.4 78 +33 +35 очень
душно
1014.3 958.5
18 16.07 СВ 1 1000 м мгла {туман} ясно +30.4 +21.6 59 +38 +64 опасность
солнечного
удара
1014.4 958.5 +22.4 +32.6
00 17.07 ЮВ 2 3000 м дым ясно +36.0 +21.9 44 +44 +46 опасность
перегрева
1009.7 955.0 +22.4 +38.0
03 17.07 ЮВ 4 1000 м дым ясно +31.0 +19.7 51 +37 +37 очень
душно
1011.0 956.5
06 17.07 В 2 1000 м дым ясно +28.0 +21.0 66 +35 +35 очень
душно
1013.4 958.8 +22.4 +38.0
09 17.07 ЮВ 1 1000 м дым ясно +25.2 +21.9 82 +32 +32 очень
душно
1013.4 958.5
12 17.07 В 1 1000 м мгла {туман} ясно +23.0 +21.6 92 +31 +31 очень
душно
1014.5 959.0 +22.6 +38.0
15 17.07 СВ 1 2000 м мгла {туман} ясно +26.0 +22.1 79 +34 +44 очень
душно
1015.6 959.6
06 18.07 ЮВ 1 1000 м дым ясно +28.4 +24.9 81 +41 +41 опасность
перегрева
1013.7 958.4 +22.6 +39.0
09 18.07 В 2 1000 м дым ясно +26.0 +21.6 77 +33 +33 очень
душно
1013.1 957.6
12 18.07 штиль 0 1000 м мгла {туман} ясно +24.2 +21.1 83 +31 +31 очень
душно
1013.7 958.0 +23.6 +39.0
15 18.07 С 1 800 м мгла {туман} 1/0
[Ci fib]
+26.4 +22.3 78 +34 +45 очень
душно
1014.6 958.7
18 18.07 СВ 2 1000 м дым {туман} ясно +31.4 +19.9 51 +38 +59 опасность
солнечного
удара
1013.3 957.7 +23.6 +33.0
00 19.07 ЮВ 2 5000 м дым ясно +37.0 +18.7 34 +41 +43 опасность
перегрева
1008.4 953.9 +23.6 +39.0
03 19.07 Ю 1 1000 м дым ясно +33.4 +20.3 46 +40 +40 очень
душно
1008.0 954.0
06 19.07 В 2 1000 м дым ясно +27.6 +20.0 63 +34 +34 очень
душно
1009.9 955.8 +23.6 +39.0
09 19.07 В 2 1000 м дым ясно +25.6 +18.7 66 +31 +31 очень
душно
1009.8 955.2
00 20.07 ЮВ 3 5000 м дым 1/1 2000 м
[Sc]
+37.0 +19.4 36 +42 +44 опасность
перегрева
1006.9 952.5 +24.0 +39.0
03 20.07 ЮВ 3 1000 м дым ясно +33.4 +18.7 42 +38 +38 очень
душно
1007.3 953.3
06 20.07 ЮВ 2 1000 м дым ясно +29.2 +14.3 40 +31 +31 жарко 1008.6 954.5 +24.0 +39.0
09 20.07 В 2 1000 м дым ясно +25.6 +20.5 73 +32 +32 очень
душно
1008.9 954.5
12 20.07 СВ 1 1000 м мгла {туман} 5/0
[Cs]
+23.4 +20.9 86 +31 +31 очень
душно
1010.1 955.0 +23.0 +39.0
15 20.07 СВ 2 1000 м мгла {туман} ясно +26.4 +20.8 71 +33 +42 очень
душно
1012.4 956.8
18 20.07 СВ 1 1000 м дым {туман} ясно +30.0 +21.4 60 +38 +63 опасность
солнечного
удара
1012.3 956.7 +23.0 +32.4
00 21.07 ЮВ 2 5000 м дым ясно +37.2 +17.5 31 +40 +42 очень
душно
1008.0 953.5 +23.0 +39.0
03 21.07 ЮВ 4 1000 м дым ясно +31.6 +22.6 59 +41 +41 опасность
перегрева
1009.5 955.3
06 21.07 В 1 1000 м дым ясно +29.4 +21.7 63 +37 +37 очень
душно
1010.2 956.0 +23.0 +39.0
09 21.07 ЮВ 2 1000 м дым ясно +26.0 +22.1 79 +34 +34 очень
душно
1010.2 955.7
12 21.07 В 1 2000 м мгла {туман} 4/4 100 м
[St]
+24.4 +23.0 92 +32 +32 очень
душно
1011.6 956.5 +23.6 +39.0
15 21.07 СВ 1 2000 м мгла {туман} 8/8 480 м
[Sc]
+26.2 +22.3 79 +34 +36 очень
душно
1013.5 957.9
18 21.07 В 1 1000 м мгла {туман} ясно +32.6 +21.0 51 +40 +65 опасность
солнечного
удара
1013.2 957.6 +23.6 +34.2
00 22.07 ЮВ 4 5000 м дым ясно +37.4 +20.3 37 +43 +45 опасность
перегрева
1008.5 954.0 +23.6 +39.0
03 22.07 В 3 1000 м дым ясно +33.0 +21.2 50 +41 +41 опасность
перегрева
1009.6 955.5
06 22.07 ЮВ 2 1000 м дым ясно +28.6 +20.8 63 +36 +36 очень
душно
1011.8 957.6 +23.6 +39.0
09 22.07 В 2 1000 м дым ясно +24.6 +20.2 77 +30 +30 очень
душно
1010.4 955.9
12 22.07 В 1 1000 м мгла {туман} 6/0
[Cs]
+24.0 +20.3 80 +30 +30 очень
душно
1011.7 956.6 +23.4 +39.0
15 22.07 Ю 1 2000 м мгла {туман} ясно +26.6 +20.7 70 +33 +44 очень
душно
1013.1 957.5
00 23.07 ЮВ 3 5000 м дым ясно +36.6 +20.6 39 +43 +44 опасность
перегрева
1007.9 953.5 +23.4 +39.6

 

Местоположение метеостанции Monterrey (Мексика): широта 25.73 долгота -100.30 высота над уровнем моря 515 м.

В архиве по умолчанию представлена погода в Monterrey за последнюю неделю. Архивные данные за месяц целиком и за предыдущие месяцы, начиная с января 2011 года, Вы можете получить, выбрав интересующий диапазон дат из раскрывающегося списка и нажав кнопку "Ввод!".


*Определитесь, кто Вы:
робот инопланетянин человек

Внимание! Время в таблицах - всемирное. Для получения местного времени необходимо прибавить поправку, которая в Monterrey равна -6 ч.

Смотрите также архив погоды в соседних городах и на ближайших метеорологических станциях:

Погода в Saltillo (Мексика) (81 км)
Погода в Monclova (Мексика) (168 км)
Погода в Ciudad Victoria (Мексика) (252 км)
Погода в Soto La Marina (Мексика) (304 км)
Погода в Torreon (Мексика) (312 км)
Погода в Piedras Negras (Мексика) (331 км)
Погода в Zacatecas (Мексика) (397 км)
Погода в San Luis Potosi (Мексика) (400 км)
Погода в Sombrerete (Мексика) (407 км)
Погода в Rio Verde (Мексика) (424 км)

Пояснения к столбцам:

Ветер - указаны скорость ветра в м/с - средняя за 10 мин, порывы в срок и между сроками (в фигурных скобках) и направление, откуда дует ветер: С - северный, СВ - северо-восточный, В - восточный, ЮВ - юго-восточный, Ю - южный, ЮЗ - юго-западный, З - западный, СЗ - северо-западный.
Видимость - горизонтальная дальность видимости в метрах или километрах. При видимости от 1 до 10 км при отсутствии осадков обычно наблюдается дымка, при ухудшении видимости до 1 км и менее - туман. В сухую погоду видимость может ухудшаться дымом, пылью или мглою.
Явления - указаны атмосферные явления, наблюдавшиеся в срок или в последний час перед сроком; фигурными скобками обозначены явления, наблюдавшиеся между сроками (за 1-3 часа до срока); квадратными скобками обозначены град или гололедные отложения с указанием их диаметра в мм.
Облачность - указаны через наклонную черту общая и нижняя облачность в баллах и высота нижней границы облаков в метрах; квадратными скобками обозначены формы облаков: Ci - перистые, Cs - перисто-слоистые, Cc - перисто-кучевые, Ac - высококучевые, As - высокослоистые, Sc - слоисто-кучевые, Ns - слоисто-дождевые, Cu - кучевые, Cb - кучево-дождевые. Подробнее классификацию облаков см. в Атласе облаков (PDF).
T - Температура воздуха - температура, измеренная на высоте 2 м над землей.
Td - Температура точки росы - температура, при понижении до которой содержащийся в воздухе водяной пар достигнет насыщения.
f - Относительная влажность воздуха - влажноcть воздуха, измеренная на высоте 2 м над землей.
Te - Эффективная температура - температура, которую ощущает одетый по сезону человек в тени. Характеристика душности погоды. При расчете учитывается влияние влажности воздуха и скорости ветра на теплоощущения человека.
Tes - Эффективная температура на солнце - температура, которую ощущает человек, с поправкой на солнечный нагрев. Характеристика знойности погоды. Зависит от высоты солнца над горизонтом, облачности и скорости ветра. Ночью, в пасмурную погоду, а также при ветре 12 м/с и более поправка равна нулю.
P - Атмосферное давление - приведенное к уровню моря атмосферное давление.
Po - Атмосферное давление - измеренное на уровне метеостанции атмосферное давление.
Tmin - Минимальная температура - минимум температуры воздуха на высоте 2 м над землей.
Tmax - Максимальная температура - максимум температуры воздуха на высоте 2 м над землей.
R - Количество осадков - Количество выпавших осадков за период времени, мм. При наведении курсора мыши на число - период времени, за который выпало указанное количество осадков.
R24 - Количество осадков - Количество выпавших осадков за 24 часа, мм.
S - Снежный покров - Высота снежного покрова, см. При наведении курсора мыши на число - состояние снежного покрова и степень покрытия местности в баллах.